shoulder
new_line
new_line
first
second
third
Al di la della Luna; Beyond the Moon; Astrophotography; Astrofotografia; Danilo Pivato
 
 
         
         
2005

Orbital Elements

Epoch 2005 July 9.0 TT = JDT 2453560.5
T 2005 July 5.3153 TT                                   MPCN
q   1.506167             (2000.0)            P               Q
n   0.1787117      Peri.  178.8390      -0.3779058      +0.9100015
a   3.121530       Node    68.9373      -0.8509115      -0.2687824
e   0.517491       Incl.   10.5301      -0.3648792      -0.3156792
P   5.52
Return in the future: 2024
 
         
         
2005.03.19
2005.06.10
2005.06.28
2005.06.29
2005.07.01
         
2005.07.07
2005.08.15
         
       
         
         
         
         
         
         

 

       
 
Since: 01/01/2004
 
       
 
Since: 01/11/2010